Time,TemperatureF,DewpointF,PressureIn,WindDirection,WindDirectionDegrees,WindSpeedMPH,WindSpeedGustMPH,Humidity,HourlyPrecipIn,Conditions,Clouds,dailyrainin,SoftwareType,DateUTC
2014-07-25 00:13:00,63.0,56.0,29.90,West,270,0.0,0.0,79,0.00,,,0.00,,2014-07-25 04:13:00,
2014-07-25 01:43:00,60.0,55.0,29.93,West,270,2.0,2.0,84,0.00,,,0.00,,2014-07-25 05:43:00,
2014-07-25 01:53:00,60.0,55.0,29.93,West,270,2.0,2.0,84,0.00,,,0.00,,2014-07-25 05:53:00,
2014-07-25 02:02:00,60.0,55.0,29.93,West,270,2.0,2.0,84,0.00,,,0.00,,2014-07-25 06:02:00,
2014-07-25 02:42:00,59.0,55.0,29.90,WSW,251,2.0,2.0,86,0.00,,,0.00,,2014-07-25 06:42:00,
2014-07-25 02:53:00,59.0,55.0,29.90,WSW,251,2.0,2.0,86,0.00,,,0.00,,2014-07-25 06:53:00,
2014-07-25 03:12:00,59.0,55.0,29.93,West,270,0.0,2.0,87,0.00,,,0.00,,2014-07-25 07:12:00,
2014-07-25 04:03:00,58.0,54.0,29.93,West,270,0.0,1.0,88,0.00,,,0.00,,2014-07-25 08:03:00,
2014-07-25 04:12:00,58.0,54.0,29.93,West,270,0.0,1.0,88,0.00,,,0.00,,2014-07-25 08:12:00,
2014-07-25 04:32:00,57.0,54.0,29.96,West,270,1.0,1.0,89,0.00,,,0.00,,2014-07-25 08:32:00,
2014-07-25 04:42:00,57.0,54.0,29.96,West,270,1.0,1.0,89,0.00,,,0.00,,2014-07-25 08:42:00,
2014-07-25 05:43:00,56.0,53.0,29.96,West,270,0.0,0.0,91,0.00,,,0.00,,2014-07-25 09:43:00,
2014-07-25 06:13:00,55.0,52.0,29.99,West,270,0.0,0.0,91,0.00,,,0.00,,2014-07-25 10:13:00,
2014-07-25 06:23:00,55.0,52.0,29.99,West,270,0.0,0.0,91,0.00,,,0.00,,2014-07-25 10:23:00,
2014-07-25 06:33:00,55.0,52.0,29.99,West,270,0.0,0.0,91,0.00,,,0.00,,2014-07-25 10:33:00,
2014-07-25 06:43:00,55.0,53.0,29.99,West,270,0.0,0.0,92,0.00,,,0.00,,2014-07-25 10:43:00,
2014-07-25 07:13:00,55.0,53.0,29.99,West,270,0.0,0.0,92,0.00,,,0.00,,2014-07-25 11:13:00,
2014-07-25 07:22:00,55.0,53.0,29.99,West,270,0.0,0.0,92,0.00,,,0.00,,2014-07-25 11:22:00,
2014-07-25 07:33:00,55.0,53.0,29.99,West,270,0.0,0.0,92,0.00,,,0.00,,2014-07-25 11:33:00,
2014-07-25 08:02:00,57.0,55.0,30.02,West,270,0.0,0.0,94,0.00,,,0.00,,2014-07-25 12:02:00,
2014-07-25 08:12:00,57.0,55.0,30.02,West,270,0.0,0.0,94,0.00,,,0.00,,2014-07-25 12:12:00,
2014-07-25 08:52:00,59.0,57.0,30.05,ENE,68,1.0,2.0,92,0.00,,,0.00,,2014-07-25 12:52:00,
2014-07-25 09:12:00,61.0,58.0,30.05,SW,230,2.0,2.0,90,0.00,,,0.00,,2014-07-25 13:12:00,
2014-07-25 09:32:00,63.0,59.0,30.05,SW,225,2.0,2.0,88,0.00,,,0.00,,2014-07-25 13:32:00,
2014-07-25 09:42:00,63.0,59.0,30.05,SW,225,2.0,2.0,88,0.00,,,0.00,,2014-07-25 13:42:00,
2014-07-25 10:43:00,69.0,58.0,30.05,North,7,2.0,7.0,68,0.00,,,0.00,,2014-07-25 14:43:00,
2014-07-25 10:52:00,69.0,58.0,30.05,North,7,2.0,7.0,68,0.00,,,0.00,,2014-07-25 14:52:00,
2014-07-25 12:33:00,74.0,59.0,30.02,East,92,1.0,3.0,60,0.00,,,0.00,,2014-07-25 16:33:00,
2014-07-25 12:43:00,74.0,59.0,30.02,East,92,1.0,3.0,60,0.00,,,0.00,,2014-07-25 16:43:00,
2014-07-25 13:34:00,78.0,59.0,29.99,South,173,1.0,5.0,53,0.00,,,0.00,,2014-07-25 17:34:00,
2014-07-25 13:43:00,78.0,59.0,29.99,South,173,1.0,5.0,53,0.00,,,0.00,,2014-07-25 17:43:00,
2014-07-25 14:12:00,79.0,58.0,29.99,NE,45,3.0,8.0,48,0.00,,,0.00,,2014-07-25 18:12:00,
2014-07-25 14:42:00,81.0,57.0,29.99,North,0,3.0,6.0,44,0.00,,,0.00,,2014-07-25 18:42:00,
2014-07-25 15:32:00,83.0,57.0,29.99,North,0,4.0,6.0,41,0.00,,,0.00,,2014-07-25 19:32:00,
2014-07-25 16:13:00,83.0,56.0,29.96,NNE,30,2.0,6.0,40,0.00,,,0.00,,2014-07-25 20:13:00,
2014-07-25 16:52:00,83.0,58.0,29.90,SE,128,1.0,2.0,42,0.00,,,0.00,,2014-07-25 20:52:00,
2014-07-25 17:12:00,83.0,58.0,29.93,WSW,251,1.0,3.0,42,0.00,,,0.00,,2014-07-25 21:12:00,
2014-07-25 18:13:00,80.0,56.0,29.90,West,270,2.0,5.0,44,0.00,,,0.00,,2014-07-25 22:13:00,
2014-07-25 18:43:00,77.0,57.0,29.90,WSW,248,1.0,3.0,51,0.00,,,0.00,,2014-07-25 22:43:00,
2014-07-25 19:12:00,75.0,59.0,29.90,SW,231,1.0,2.0,58,0.00,,,0.00,,2014-07-25 23:12:00,
2014-07-25 19:42:00,74.0,59.0,29.90,SW,225,0.0,2.0,59,0.00,,,0.00,,2014-07-25 23:42:00,
2014-07-25 20:02:00,73.0,60.0,29.90,SW,225,0.0,2.0,63,0.00,,,0.00,,2014-07-26 00:02:00,
2014-07-25 20:13:00,73.0,60.0,29.90,SW,225,0.0,2.0,63,0.00,,,0.00,,2014-07-26 00:13:00,
2014-07-25 20:42:00,71.0,60.0,29.90,SW,225,0.0,0.0,69,0.00,,,0.00,,2014-07-26 00:42:00,
2014-07-25 21:02:00,69.0,59.0,29.90,WSW,248,0.0,1.0,71,0.00,,,0.00,,2014-07-26 01:02:00,
2014-07-25 21:12:00,69.0,59.0,29.90,WSW,248,0.0,1.0,71,0.00,,,0.00,,2014-07-26 01:12:00,